Weather History for Hillsdale, MI

Change the Weather History Date:

Tuesday, May 7, 2013

  Actual Average Record
Temperature  
Mean Temperature 61 °F -  
Max Temperature 75 °F 66 °F 83 °F (1965)
Min Temperature 47 °F 41 °F 23 °F (1974)
Degree Days  
Heating Degree Days 4    
Growing Degree Days 11 (Base 50)    
Moisture  
Dew Point 45 °F    
Average Humidity 53    
Maximum Humidity 89    
Minimum Humidity 34    
Precipitation  
Precipitation 0.00 in - - ()
Sea Level Pressure  
Sea Level Pressure 30.02 in    
Wind  
Wind Speed 6 mph (East)    
Max Wind Speed 16 mph    
Max Gust Speed 23 mph    
Visibility 10 miles    
Events      
Averages and records for this station are not official NWS values.
T = Trace of Precipitation, MM = Missing Value Source: NWS Daily Summary

Daily Weather History Graph

Daily Weather History Graph

Search for Another Location

Airport:

Trip Planner

Search our weather history database for the weather conditions in past years. The results will help you decide how hot, cold, wet, or windy it might be!

Date:

Astronomy

May. 07, 2013 Rise Set
Actual Time 6:26 AM EDT 8:43 PM EDT
Civil Twilight 5:55 AM EDT 9:14 PM EDT
Nautical Twilight 5:17 AM EDT 9:53 PM EDT
Astronomical Twilight 4:34 AM EDT 10:36 PM EDT
Moon 5:02 AM EDT (5/7) 6:41 PM EDT (5/7)
Length of Visible Light 15h 19m
Length of Day
14h 17m
Waning Crescent, 5% of the Moon is Illuminated
May 7
Waning Crescent
May 9
New
May 18
First Quarter
May 25
Full
May 31
Last Quarter

Hourly Weather History & Observations

Time (EDT) Temp. Dew Point Humidity Pressure Visibility Wind Dir Wind Speed Gust Speed Precip Events Conditions
12:14 AM 59.9 °F 41.2 °F 50% 30.03 in 10.0 mi ESE 6.9 mph - N/A   Clear
12:35 AM 60.1 °F 39.7 °F 47% 30.02 in 10.0 mi ESE 8.1 mph - N/A   Clear
12:54 AM 59.7 °F 38.7 °F 46% 30.02 in 10.0 mi East 8.1 mph - N/A   Clear
1:14 AM 59.4 °F 37.9 °F 45% 30.02 in 10.0 mi East 10.4 mph - N/A   Clear
1:35 AM 57.9 °F 38.1 °F 48% 30.01 in 10.0 mi East 6.9 mph - N/A   Clear
1:54 AM 57.4 °F 37.8 °F 48% 30.01 in 10.0 mi East 5.8 mph - N/A   Clear
2:15 AM 56.7 °F 36.5 °F 47% 30.01 in 10.0 mi ESE 3.5 mph - N/A   Clear
2:35 AM 55.8 °F 37.4 °F 50% 30.00 in 10.0 mi ENE 3.5 mph - N/A   Clear
2:54 AM 54.1 °F 38.1 °F 55% 30.00 in 10.0 mi Calm Calm - N/A   Clear
3:15 AM 53.1 °F 37.6 °F 56% 30.00 in 10.0 mi Calm Calm - N/A   Clear
3:35 AM 53.1 °F 37.6 °F 56% 30.00 in 10.0 mi East 3.5 mph - N/A   Clear
3:54 AM 52.7 °F 37.8 °F 57% 30.00 in 10.0 mi Calm Calm - N/A   Clear
4:15 AM 51.6 °F 37.6 °F 59% 30.00 in 10.0 mi Calm Calm - N/A   Clear
4:35 AM 50.7 °F 40.8 °F 69% 30.00 in 10.0 mi Calm Calm - N/A   Clear
4:54 AM 50.5 °F 39.9 °F 67% 30.01 in 10.0 mi Calm Calm - N/A   Clear
5:15 AM 49.3 °F 40.6 °F 72% 30.01 in 10.0 mi Calm Calm - N/A   Clear
5:34 AM 49.6 °F 39.7 °F 69% 30.01 in 10.0 mi Calm Calm - N/A   Clear
5:54 AM 48.2 °F 41.7 °F 78% 30.01 in 10.0 mi Calm Calm - N/A   Clear
6:15 AM 49.1 °F 41.9 °F 76% 30.02 in 10.0 mi East 3.5 mph - N/A   Clear
6:34 AM 47.3 °F 42.1 °F 82% 30.03 in 10.0 mi Calm Calm - N/A   Clear
6:54 AM 48.0 °F 42.6 °F 82% 30.03 in 10.0 mi Calm Calm - N/A   Clear
7:15 AM 50.0 °F 42.4 °F 75% 30.03 in 10.0 mi ENE 4.6 mph - N/A   Clear
7:34 AM 53.4 °F 42.8 °F 67% 30.04 in 10.0 mi East 3.5 mph - N/A   Clear
7:55 AM 55.8 °F 42.4 °F 61% 30.04 in 10.0 mi East 4.6 mph - N/A   Clear
8:15 AM 58.3 °F 44.4 °F 60% 30.04 in 10.0 mi East 4.6 mph - N/A   Clear
8:34 AM 60.8 °F 46.0 °F 58% 30.04 in 10.0 mi East 3.5 mph - N/A   Clear
8:55 AM 62.2 °F 47.3 °F 58% 30.05 in 10.0 mi ENE 4.6 mph - N/A   Clear
9:15 AM 63.5 °F 48.7 °F 59% 30.05 in 10.0 mi Calm Calm - N/A   Scattered Clouds
9:34 AM 65.1 °F 49.1 °F 56% 30.05 in 10.0 mi Calm Calm - N/A   Clear
9:55 AM 66.7 °F 50.0 °F 55% 30.05 in 10.0 mi East 5.8 mph - N/A   Clear
10:15 AM 67.5 °F 50.5 °F 55% 30.05 in 10.0 mi East 8.1 mph - N/A   Clear
10:34 AM 67.6 °F 50.9 °F 55% 30.05 in 10.0 mi East 4.6 mph - N/A   Clear
10:55 AM 69.3 °F 51.3 °F 53% 30.05 in 10.0 mi East 9.2 mph - N/A   Clear
11:14 AM 69.3 °F 50.9 °F 52% 30.05 in 4.0 mi East 9.2 mph - N/A   Haze
11:34 AM 70.5 °F 50.2 °F 48% 30.05 in 10.0 mi East 12.7 mph - N/A   Clear
11:55 AM 70.2 °F 49.1 °F 47% 30.04 in 10.0 mi ENE 12.7 mph 19.6 mph N/A   Clear
12:14 PM 71.8 °F 49.1 °F 45% 30.04 in 10.0 mi East 13.8 mph - N/A   Scattered Clouds
12:34 PM 70.3 °F 49.3 °F 47% 30.04 in 10.0 mi ENE 10.4 mph - N/A   Scattered Clouds
12:55 PM 71.6 °F 48.2 °F 43% 30.04 in 10.0 mi East 15.0 mph 19.6 mph N/A   Scattered Clouds
1:14 PM 71.2 °F 48.9 °F 45% 30.04 in 10.0 mi East 16.1 mph 19.6 mph N/A   Scattered Clouds
1:35 PM 71.2 °F 49.5 °F 46% 30.03 in 10.0 mi ENE 12.7 mph 19.6 mph N/A   Scattered Clouds
1:55 PM 71.4 °F 49.5 °F 46% 30.03 in 10.0 mi East 10.4 mph - N/A   Scattered Clouds
2:14 PM 71.8 °F 48.9 °F 44% 30.03 in 10.0 mi ESE 9.2 mph 16.1 mph N/A   Scattered Clouds
2:35 PM 72.1 °F 49.6 °F 45% 30.02 in 10.0 mi East 11.5 mph - N/A   Scattered Clouds
2:55 PM 72.9 °F 49.3 °F 43% 30.02 in 10.0 mi ENE 10.4 mph - N/A   Mostly Cloudy
3:14 PM 74.7 °F 47.8 °F 39% 30.02 in 10.0 mi East 15.0 mph 18.4 mph N/A   Mostly Cloudy
3:35 PM 75.4 °F 46.9 °F 36% 30.01 in 10.0 mi SE 12.7 mph 21.9 mph N/A   Scattered Clouds
3:54 PM 74.7 °F 47.3 °F 38% 30.01 in 10.0 mi ESE 9.2 mph 21.9 mph N/A   Scattered Clouds
4:15 PM 73.9 °F 47.5 °F 39% 30.00 in 10.0 mi East 13.8 mph - N/A   Mostly Cloudy
4:35 PM 74.7 °F 45.9 °F 36% 30.00 in 10.0 mi East 12.7 mph 19.6 mph N/A   Scattered Clouds
4:54 PM 75.4 °F 46.0 °F 35% 30.00 in 10.0 mi ESE 11.5 mph 19.6 mph N/A   Clear
5:15 PM 74.7 °F 45.1 °F 35% 30.00 in 10.0 mi ESE 13.8 mph 23.0 mph N/A   Clear
5:35 PM 74.5 °F 44.8 °F 35% 30.00 in 10.0 mi ENE 12.7 mph 17.3 mph N/A   Clear
5:54 PM 74.5 °F 44.4 °F 34% 30.00 in 10.0 mi East 10.4 mph - N/A   Clear
6:15 PM 73.8 °F 45.9 °F 37% 30.00 in 10.0 mi East 9.2 mph - N/A   Clear
6:34 PM 73.4 °F 46.2 °F 38% 30.00 in 10.0 mi East 11.5 mph - N/A   Clear
6:54 PM 72.5 °F 45.3 °F 38% 30.00 in 10.0 mi East 11.5 mph - N/A   Clear
7:15 PM 72.0 °F 44.8 °F 38% 30.00 in 10.0 mi ESE 10.4 mph 16.1 mph N/A   Clear
7:34 PM 71.1 °F 44.6 °F 39% 30.00 in 10.0 mi East 10.4 mph - N/A   Clear
7:54 PM 70.2 °F 45.5 °F 41% 30.01 in 10.0 mi East 8.1 mph - N/A   Clear
8:15 PM 68.9 °F 46.4 °F 44% 30.01 in 10.0 mi ESE 6.9 mph - N/A   Clear
8:34 PM 67.5 °F 46.9 °F 48% 30.01 in 10.0 mi ESE 4.6 mph - N/A   Clear
8:55 PM 66.2 °F 47.1 °F 50% 30.01 in 10.0 mi SE 4.6 mph - N/A   Clear
9:15 PM 64.8 °F 47.3 °F 53% 30.02 in 10.0 mi Calm Calm - N/A   Clear
9:34 PM 64.2 °F 48.0 °F 56% 30.03 in 10.0 mi Calm Calm - N/A   Clear
9:55 PM 63.1 °F 48.4 °F 59% 30.03 in 10.0 mi SE 3.5 mph - N/A   Clear
10:15 PM 62.8 °F 48.6 °F 60% 30.03 in 10.0 mi ESE 3.5 mph - N/A   Clear
10:34 PM 59.0 °F 47.7 °F 66% 30.04 in 10.0 mi Calm Calm - N/A   Clear
10:55 PM 57.4 °F 50.9 °F 79% 30.04 in 10.0 mi Calm Calm - N/A   Clear
11:15 PM 56.8 °F 51.3 °F 82% 30.04 in 10.0 mi Calm Calm - N/A   Clear
11:34 PM 56.7 °F 51.4 °F 83% 30.03 in 10.0 mi Calm Calm - N/A   Clear
11:55 PM 54.1 °F 51.1 °F 89% 30.04 in 10.0 mi Calm Calm - N/A   Clear